* Astronomy

Members Login
Username 
 
Password 
    Remember Me  
Post Info TOPIC: SL-16 rocket body re-entry


L

Posts: 131433
Date:
RE: SL-16 rocket body re-entry
Permalink  
 


Update:
The SL-16 rocket body re-entered the Earths atmosphere on  the 22nd November, 2011 @ 18:44 GMT  ± 1 minute.

Inclination: 51.43°
Revolution Number: 222
Predicted Location:  14°S, 133°E



__________________


L

Posts: 131433
Date:
Permalink  
 

Update:
The SL-16 rocket body is predicted to re-enter the Earths atmosphere on  the 22nd November, 2011 @ 18:33 GMT  ± 8 hours.

SL16RBb.gif
Expand (27kb, 857 x 564)

SL-16 RB
1 37873U 11065B   11326.44526989  .07971406  12583-4  18414-3 0   529
2 37873 051.4238 286.7778 0020935 076.4313 284.4397 16.44171705  2174

Period:       88.48 minutes
Inclination: 51.43°
Apogee:     230 km
Perigee:     169 km
Revolution Number: 222
Predicted Location:  32.3°N, 95.8°E



__________________


L

Posts: 131433
Date:
Permalink  
 

Update:
The SL-16 rocket body is predicted to re-enter the Earths atmosphere on  the 22nd November, 2011 @ 18:45 GMT  ± 14 hours.

SL-16 RB
1 37873U 11065B   11325.77475870  .03859844  12350-4  35075-3 0   482
2 37873 051.4208 290.5905 0034540 071.1948 289.4774 16.35573665  2062

Period:       88.48 minutes
Inclination: 51.43°
Apogee:     230 km
Perigee:     169 km
Revolution Number: 222
Predicted Location:  5.2°S, 127.1°E



__________________


L

Posts: 131433
Date:
Permalink  
 

Update:
The SL-16 rocket body is predicted to re-enter the Earths atmosphere on  the 22nd November, 2011 @ 20:15 GMT  ± 24 hours.

SL-16 RB
1 37873U 11065B   11324.67237404  .02170788  12143-4  39663-3 0   444
2 37873 051.4258 296.7721 0044857 068.2139 292.3939 16.28287025  1881

Period:       89.72 minutes
Inclination: 51.43°
Apogee:     247 km
Perigee:     175 km
Revolution Number: 224
Predicted Location:  11.7°S, 109.5°E



__________________


L

Posts: 131433
Date:
Permalink  
 

Update:
The SL-16 rocket body is predicted to re-enter the Earths atmosphere on  the 22nd November, 2011 @ 22:23 GMT  ± 48 hours.

SL-16 RB
1 37873U 11065B   11324.48833702  .02144428  12123-4  41728-3 0   430
2 37873 051.4253 297.7999 0046489 067.3738 293.9169 16.27465593  1858

Period:       89.72 minutes
Inclination: 51.43°
Apogee:     247 km
Perigee:     175 km
Revolution Number: 225
Predicted Location:  0.1°N, 247.4°E



__________________


L

Posts: 131433
Date:
Permalink  
 

Update:
The SL-16 rocket body is predicted to re-enter the Earths atmosphere on  the 22nd November, 2011 @ 15:39 GMT  ± 72 hours.

SL-16 RB
1 37873U 11065B   11321.83993487 +.01184432 +11877-4 +44740-3 0 00365
2 37873 051.4307 312.4701 0063753 056.3171 304.4765 16.18179187001420

Period:       89.95 minutes
Inclination: 51.43°
Apogee:     264 km
Perigee:     181 km
Revolution Number: 220
Predicted Location:  24°N, 149.6°E



__________________


L

Posts: 131433
Date:
Permalink  
 

Update:
The SL-16 rocket body is predicted to re-enter the Earths atmosphere on (or after) the 19th November, 2011 @ --:-- GMT  ± - hours.

SL-16 RB
1 37873U 11065B   11320.85116592  .01071394  11812-4  47264-3 0   286
2 37873 051.4300 317.9030 0068747 052.1380 308.5952 16.15693362  1260

Period:       89.31 minutes
Inclination: 51.43°
Apogee:     291 km
Perigee:     190 km
Revolution Number: -
Predicted Location:  -



__________________


L

Posts: 131433
Date:
Permalink  
 

Update:
The SL-16 rocket body is predicted to re-enter the Earths atmosphere on (or after) the 14th November, 2011 @ --:-- GMT  ± - hours.

SL-16 RB
1 37873U 11065B   11318.18702752  .00823184  11666-4  49451-3 0   219
2 37873 051.4292 332.4489 0080674 039.6268 321.0681 16.10230154   830

Period:       89.67 minutes
Inclination: 51.43°
Apogee:     319 km
Perigee:     198 km
Revolution Number: -
Predicted Location:  -



__________________


L

Posts: 131433
Date:
Permalink  
 

A SL-16 rocket body that was launched on the 8th November, 2011, from the Baikonur Cosmodrome, for the Phobos-Grunt mission is predicted to re-enter the Earths atmosphere on (or after) the 14th November, 2011 @ --:-- GMT  ± - hours.

SL-16 RB
1 37873U 11065B   11316.57214568  .00746726  11593-4  51316-3 0   165
2 37873 051.4308 341.2199 0087169 032.9971 327.6506 16.07547056   574

Period:       89.67 minutes
Inclination: 51.43°
Apogee:     319 km
Perigee:     198 km
Revolution Number: -
Predicted Location:  -



__________________
Page 1 of 1  sorted by
 
Quick Reply

Please log in to post quick replies.



Create your own FREE Forum
Report Abuse
Powered by ActiveBoard